Location: Bazinghen
(50.8246°N, 1.6616°E)
Time: 13:56:28
(UTC+00:00)

CZ-4C R/B - Pass Details

Date: 09 April 2020
Orbit: 637 x 1364 km, 63.4° (Epoch: 25 May)

Event Time Altitude Azimuth Distance (km) Brightness Sun altitude
Rises 20:48:21 0° 314° (NW) 3,670 7.2 -18.8°
Reaches altitude 10° 20:50:48 10° 318° (NW) 2,822 6.1 -19.1°
Maximum altitude 20:57:31 59° 38° (NE) 1,333 3.2 -19.9°
Enters shadow 21:01:47 28° 106° (ESE) 2,143 3.8 -20.4°
